VA2DWE-13 Weather Reports


time (UTC)temp
C
wind
direction
speed
KPH
gust
KPH
rain 1hr
cm
rain 24hr
cm
rain mn
cm
humidity
%
barometer
mb
20260507070653 -17 270 0.0 1.6 0.00 0.00 0.00 100
20260507064758 -17 270 1.6 1.6 0.00 0.00 0.00 100
20260507062840 -17 270 0.0 1.6 0.00 0.00 0.00 100
20260507060916 -17 270 0.0 1.6 0.00 0.00 0.00 100
20260507055023 -17 306 0.0 1.6 0.00 0.00 0.00 100
20260507053331 -17 315 0.0 1.6 0.00 0.00 0.00 100
20260507051434 -17 311 0.0 1.6 0.00 0.00 0.00 100
20260507045816 -17 270 0.0 1.6 0.00 0.00 0.00 100
20260507043853 -17 270 0.0 1.6 0.00 0.00 0.00 100
20260507042018 -17 270 0.0 1.6 0.00 0.00 0.00 100
20260507040146 -17 270 0.0 3.2 0.00 0.00 0.00 100
20260507034334 -17 270 1.6 1.6 0.00 0.00 0.00 100
20260507032418 -17 270 1.6 3.2 0.00 0.00 0.00 100
20260507030713 -17 270 0.0 1.6 0.00 0.00 0.00 100
20260507025103 -17 246 1.6 4.8 0.00 0.00 0.00 100
20260507023153 -17 253 1.6 3.2 0.00 0.00 0.00 100
20260507021432 -17 248 1.6 3.2 0.00 0.00 0.00 100
20260507021358 -17 248 1.6 3.2 0.00 0.00 0.00 100
20260507015533 -17 248 1.6 6.4 0.00 0.00 0.00 100
20260507013928 -17 245 1.6 4.8 0.00 0.00 0.00 100
20260507012052 -17 250 1.6 4.8 0.00 0.00 0.00 100
20260507010233 -17 245 1.6 4.8 0.00 0.00 0.00 100
20260507004533 -17 247 1.6 4.8 0.00 0.00 0.00 100
20260507002738 -17 246 1.6 4.8 0.00 0.00 0.00 100
20260507001046 -17 249 1.6 4.8 0.00 0.00 0.00 100
20260506235334 -17 244 1.6 4.8 0.00 0.00 0.00 100
20260506233530 -17 249 1.6 3.2 0.00 0.00 0.00 100
20260506231538 -17 246 1.6 4.8 0.00 0.00 0.00 100
20260506225808 -17 253 1.6 3.2 0.00 0.00 0.00 100
20260506224123 -17 252 1.6 4.8 0.00 0.00 0.00 100
20260506222146 -17 270 0.0 3.2 0.00 0.00 0.00 100
20260506220228 -17 250 1.6 3.2 0.00 0.00 0.00 100
20260506214246 -17 270 1.6 3.2 0.00 0.00 0.00 100
20260506212503 -17 252 1.6 4.8 0.00 0.00 0.00 100
20260506210627 -17 254 1.6 3.2 0.00 0.00 0.00 100
20260506204843 -17 270 1.6 4.8 0.00 0.00 0.00 100
20260506202912 -17 252 1.6 4.8 0.00 0.00 0.00 100
20260506200918 -17 255 1.6 4.8 0.00 0.00 0.00 100
20260506195158 -17 255 1.6 3.2 0.00 0.00 0.00 100
20260506193351 -17 270 1.6 3.2 0.00 0.00 0.00 100
20260506191643 -17 270 1.6 3.2 0.00 0.00 0.00 100
20260506185718 -17 270 0.0 3.2 0.00 0.00 0.00 100
20260506183933 -17 270 0.0 3.2 0.00 0.00 0.00 100
20260506182218 -17 270 0.0 3.2 0.00 0.00 0.00 100
20260506180536 -17 308 0.0 1.6 0.00 0.00 0.00 100
20260506174633 -17 253 1.6 4.8 0.00 0.00 0.00 100
20260506172806 -17 252 1.6 3.2 0.00 0.00 0.00 100
20260506170827 -17 250 1.6 4.8 0.00 0.00 0.00 100
20260506164903 -17 270 0.0 3.2 0.00 0.00 0.00 100
20260506163228 -17 270 1.6 3.2 0.00 0.00 0.00 100
20260506161337 -17 270 1.6 4.8 0.00 0.00 0.00 100
20260506155603 -17 250 1.6 3.2 0.00 0.00 0.00 100
20260506153826 -17 255 1.6 6.4 0.00 0.00 0.00 100
20260506151843 -17 270 1.6 1.6 0.00 0.00 0.00 100
20260506150058 -17 270 0.0 1.6 0.00 0.00 0.00 100
20260506144428 -17 270 1.6 3.2 0.00 0.00 0.00 100
20260506142443 -17 302 0.0 3.2 0.00 0.00 0.00 100
20260506140548 -17 255 1.6 4.8 0.00 0.00 0.00 100
20260506134747 -17 243 1.6 4.8 0.00 0.00 0.00 100
20260506133046 -17 270 1.6 4.8 0.00 0.00 0.00 100
20260506131314 -17 270 1.6 4.8 0.00 0.00 0.00 100
20260506125708 -17 270 1.6 4.8 0.00 0.00 0.00 100
20260506123923 -17 246 1.6 4.8 0.00 0.00 0.00 100
20260506122126 -17 248 1.6 4.8 0.00 0.00 0.00 100
20260506120527 -17 249 1.6 4.8 0.00 0.00 0.00 100
20260506114823 -17 270 1.6 3.2 0.00 0.00 0.00 100
20260506113008 -17 253 1.6 3.2 0.00 0.00 0.00 100
20260506111404 -17 270 0.0 3.2 0.00 0.00 0.00 100
20260506105606 -17 248 1.6 3.2 0.00 0.00 0.00 100
20260506103643 -17 253 1.6 1.6 0.00 0.00 0.00 100
20260506101823 -17 270 1.6 1.6 0.00 0.00 0.00 100
20260506100023 -17 309 0.0 1.6 0.00 0.00 0.00 100
20260506094034 -17 315 0.0 1.6 0.00 0.00 0.00 100
20260506092206 -17 270 1.6 1.6 0.00 0.00 0.00 100
20260506090413 -17 315 0.0 1.6 0.00 0.00 0.00 100
20260506084543 -17 270 0.0 1.6 0.00 0.00 0.00 100
20260506082823 -17 270 0.0 1.6 0.00 0.00 0.00 100
20260506081228 -17 270 1.6 3.2 0.00 0.00 0.00 100
20260506073458 -17 270 0.0 1.6 0.00 0.00 0.00 100